Flag for U.S.A. Weather past 2 weeks in Riverside, California, U.S.A.

Now
64 °F

Passing clouds.


Feels Like: 64 °F
Forecast: 59 / 81 °F
Wind: 3 mph from Southeast

Location: Riverside Municipal Airport

Current Time: Oct 25, 2014 at 8:19:20 AM

Latest Report: Oct 25, 2014 at 7:53 AM


Visibility: 10 mi

Pressure: 29.99 "Hg

Humidity: 47%

Dew point: 43 °F

Location of RiversideLocation

Historic Weather in Riverside — Graph

°F

Riverside temperature yesterday

Maximum temperature yesterday: 92 °F (at 1:53 PM)
Minimum temperature yesterday: 59 °F (at 5:53 AM)
Average temperature yesterday: 74 °F

Past Weeks' High & Low Weather Summary

 TemperatureHumidityPressure
High92 °F (Oct 24, 1:53 PM)100% (Oct 14, 7:53 AM)30.01 "Hg (Oct 14, 7:53 AM)
Low56 °F (Oct 17, 5:53 AM)10% (Oct 22, 1:53 PM)29.78 "Hg (Oct 18, 4:53 PM)
Average70 °F61%29.90 "Hg
* Reported Oct 10 6:53 AM — Oct 25 6:53 AM, Riverside, Weather by CustomWeather, © 2014

Note: Actual official high and low records may vary slightly from our data, if they occured in-between our weather recording intervals... More about our weather records

Advertising

Riverside weather history for previous 24 hours

 ConditionsComfort  
Time TempWeatherWind HumidityBarometerVisibility
6:53 AM
Oct 25
64 °FPassing clouds.3 mph45%29.97 "Hg10 mi
5:53 AM64 °FOvercast.6 mph43%29.96 "Hg10 mi
4:53 AM64 °FPassing clouds.7 mph43%29.95 "Hg10 mi
3:53 AM64 °FPassing clouds.No wind41%29.95 "Hg10 mi
2:53 AM64 °FClear.3 mph41%29.97 "Hg10 mi
1:53 AM66 °FClear.No wind39%29.98 "Hg10 mi
12:53 AM68 °FClear.3 mph35%29.98 "Hg10 mi
11:53 PM
Oct 24
68 °FClear.5 mph32%29.97 "Hg10 mi
10:53 PM68 °FClear.3 mph33%29.97 "Hg10 mi
9:53 PM71 °FClear.No wind28%29.96 "Hg10 mi
8:53 PM73 °FClear.No wind23%29.95 "Hg10 mi
7:53 PM78 °FClear.No wind15%29.93 "Hg10 mi
6:53 PM81 °FSunny.5 mph14%29.91 "Hg10 mi
5:53 PM84 °FSunny.7 mph14%29.89 "Hg10 mi
4:53 PM87 °FSunny.8 mph19%29.88 "Hg10 mi
3:53 PM90 °FSunny.8 mph18%29.87 "Hg10 mi
2:53 PM92 °FSunny.12 mph12%29.87 "Hg10 mi
1:53 PM92 °FSunny.9 mph10%29.88 "Hg10 mi
12:53 PM89 °FSunny.5 mph16%29.91 "Hg10 mi
11:53 AM88 °FSunny.5 mph16%29.94 "Hg10 mi
10:53 AM82 °FSunny.No wind21%29.96 "Hg10 mi
9:53 AM76 °FSunny.No wind29%29.98 "Hg10 mi
8:53 AM68 °FSunny.3 mph36%29.98 "Hg10 mi
Weather by CustomWeather, © 2014

See weather overviewHow to use our weather pages